Temperature
27 27 27 27 27 27 26 27 27 28 28 29 29 28 26 24 23 22 21 20 20 19 19 18 18 18 17 17 17 17 17 17 17 16 16 16 16 16 16 16 16 16 15 15
25 26 26 26 26 26 26 27 27 27 27 29 27 26 25 24 23 22 21 20 19 19 18 18 17 17 17 17 17 16 17 16 16 16 16 16 16 16 15 15 15 15 15 15
24 25 25 24 26 26 26 27 26 26 27 27 26 25 24 23 22 21 20 20 19 18 18 17 17 17 17 17 17 16 16 16 16 16 15 15 15 15 15 15 15 14 14 14
23 23 22 25 26 25 25 25 26 26 26 25 24 22 21 21 21 20 19 18 18 17 17 16 16 16 16 16 16 16 16 16 15 15 15 15 14 14 14 14 14 13 13 13
22 22 23 24 24 23 23 23 24 24 24 23 21 20 19 18 18 18 18 17 16 16 16 16 16 16 15 15 15 15 15 14 14 14 14 14 13 13 13 13 13 12 12 12
21 21 21 23 23 21 22 22 22 22 22 21 20 22 20 17 16 16 16 15 15 15 15 15 15 15 15 14 14 14 14 13 13 13 13 13 13 12 12 12 12 11 11 11
20 20 22 22 21 21 21 21 20 20 20 20 20 20 17 15 14 14 14 14 14 14 14 14 14 14 14 13 13 13 13 13 12 12 12 12 12 12 11 11 11 10 10 10
20 20 20 21 20 20 20 19 18 18 18 18 16 15 14 13 13 13 13 13 13 13 13 12 13 13 13 12 12 12 12 12 12 11 11 11 11 11 10 10 10 10 9 9
20 20 20 19 18 18 17 17 17 17 16 16 14 13 12 12 12 12 12 12 12 12 12 11 12 12 12 11 11 11 11 11 11 11 10 10 10 10 10 10 10 10 10 9
19 20 19 18 17 16 16 15 15 15 14 14 13 12 11 11 11 11 11 11 11 11 11 10 10 11 11 10 11 11 11 10 10 10 10 10 9 10 10 10 10 9 9 9
18 18 18 17 15 14 14 13 13 13 13 12 12 11 10 10 10 10 10 10 10 10 10 10 10 10 10 10 10 10 10 10 10 9 9 9 9 9 9 9 8 8 7 7
18 17 16 15 13 13 13 12 12 12 11 11 10 10 9 9 9 9 9 9 10 10 9 9 9 9 10 10 10 10 9 9 10 9 9 9 8 8 8 8 7 7 7 6
15 14 13 13 12 12 12 11 11 10 10 10 9 9 9 9 9 9 9 9 9 9 9 9 9 9 9 9 9 9 9 9 9 9 9 8 8 8 7 7 6 6 6 5
13 13 12 12 11 11 11 10 10 9 9 9 9 8 8 8 8 9 9 9 9 9 9 9 9 9 9 9 9 9 8 8 8 8 8 8 8 7 7 7 6 5 4 4
12 12 12 11 11 10 10 10 9 9 9 8 8 8 8 9 9 9 9 9 9 9 9 9 9 9 8 8 8 8 8 8 7 7 7 7 7 7 6 6 5 5 4 3
12 11 11 11 10 10 10 10 10 9 9 9 9 9 9 9 9 9 9 9 9 9 9 9 8 8 8 8 8 7 7 7 7 7 7 6 6 6 5 5 5 4 4 3
12 11 11 10 10 10 10 10 10 9 9 9 9 9 9 9 9 9 9 9 9 8 8 8 8 8 7 7 7 7 6 6 6 6 6 5 5 5 5 4 4 4 3 2
12 11 11 11 11 10 10 10 10 10 9 9 9 9 9 9 9 9 9 8 8 8 8 8 7 7 7 6 6 6 6 6 5 5 5 4 4 4 4 4 3 3 3 3
11 11 11 11 11 11 10 10 10 10 10 10 10 9 9 9 9 9 8 8 8 8 7 7 7 6 6 6 6 5 5 5 5 4 4 4 4 4 4 3 3 3 2 2
11 11 11 11 11 10 10 10 10 10 10 10 10 9 9 9 8 8 8 8 7 7 7 6 6 6 6 5 5 5 5 5 5 4 4 4 4 3 3 3 2 2 2 2
10 10 10 10 10 10 10 10 10 10 10 10 9 9 9 8 8 8 8 7 7 6 6 6 5 5 5 5 5 5 4 4 4 4 4 3 3 3 3 2 2 2 1 1
10 10 10 10 10 10 10 10 10 10 9 9 9 9 8 8 8 7 7 7 6 6 6 5 5 5 5 5 4 4 4 4 3 3 3 3 3 2 2 2 2 1 1 1
10 10 10 10 10 10 10 10 10 9 9 9 9 8 8 8 8 8 7 6 6 6 5 5 5 4 4 4 4 4 3 3 3 3 3 2 2 2 2 2 1 1 1 0
10 10 10 10 10 10 9 9 9 9 8 8 8 8 8 8 7 7 6 6 6 5 5 5 4 4 4 4 4 3 3 3 3 3 3 2 2 2 2 1 1 1 1 0
10 10 10 10 9 9 9 9 8 8 8 8 8 7 7 7 7 6 6 5 5 5 4 4 4 4 3 3 3 3 3 3 3 3 2 2 2 2 2 1 1 1 1 0
9 9 9 9 9 9 9 9 9 8 8 8 7 7 7 7 6 6 5 5 4 4 4 4 3 3 3 3 3 3 3 3 3 2 2 2 2 2 2 1 1 1 1 0
9 9 9 9 9 9 9 9 8 8 8 8 7 7 7 6 6 5 5 5 5 4 4 4 4 4 4 4 3 3 3 3 3 3 2 2 2 2 2 1 1 1 1 1
Wind_Speed
11 9 9 12 13 13 15 16 18 17 16 12 7 5 6 10 13 15 15 15 15 14 13 12 12 12 12 12 12 12 11 11 10 8 8 8 7 7 6 5 5 4 4 3
12 12 13 15 16 17 18 19 19 20 20 13 6 4 6 10 14 15 15 15 15 14 13 13 12 12 11 11 10 10 11 10 9 8 8 8 7 7 7 6 6 5 5 4
13 12 13 17 16 18 19 19 19 20 18 12 9 6 6 9 13 14 15 15 14 13 12 11 11 11 11 10 10 10 10 10 10 9 9 8 8 9 8 8 7 7 7 7
11 10 15 9 4 8 13 15 16 17 15 11 8 3 3 5 9 12 13 13 12 11 11 10 11 11 11 11 11 11 11 11 10 10 11 10 10 10 9 8 9 9 9 9
9 13 13 11 6 7 10 14 11 11 11 8 3 3 3 3 6 8 10 10 10 11 11 11 12 13 13 13 12 12 12 11 11 11 12 11 11 10 10 10 10 10 10 10
9 11 11 5 2 4 8 11 3 6 7 5 6 8 4 6 8 9 10 10 11 12 13 13 13 14 15 14 14 13 12 12 12 12 12 12 11 11 10 10 10 10 10 9
12 12 9 3 3 5 9 4 7 8 7 6 7 3 7 10 11 11 12 13 13 14 13 13 14 15 16 15 14 14 13 13 13 13 12 12 11 10 10 10 10 9 9 9
7 9 7 3 4 6 8 11 11 10 8 3 2 8 11 12 13 14 14 15 15 15 14 13 14 16 17 16 14 14 14 14 14 13 12 12 11 10 9 9 9 8 7 6
6 6 5 5 8 10 12 14 12 9 6 3 8 11 13 14 15 15 16 16 16 17 17 15 14 15 17 15 14 15 15 15 14 13 11 10 10 9 8 6 5 5 4 4
8 8 9 9 9 9 9 9 8 5 3 8 12 14 15 15 15 16 16 16 17 18 18 16 15 15 14 14 14 15 15 14 12 12 11 9 7 6 5 4 4 3 3 2
10 9 8 6 7 7 5 4 1 3 7 12 15 17 16 16 16 15 15 15 16 17 17 16 14 14 13 12 13 14 13 12 11 11 10 9 9 9 8 10 8 6 5 5
7 6 6 7 7 5 2 3 7 11 13 14 17 19 18 16 15 14 15 15 16 17 17 15 14 14 12 11 11 11 11 10 9 8 8 8 9 10 15 12 14 15 14 10
4 5 4 4 4 3 6 9 12 15 17 17 17 18 19 17 14 15 15 15 16 16 15 15 14 13 11 10 10 10 10 8 7 7 6 5 5 6 7 8 11 12 12 12
2 2 2 3 5 8 12 15 17 18 18 18 18 18 18 17 15 15 15 15 15 15 15 15 14 13 11 10 10 10 9 8 7 6 5 5 4 3 3 3 4 5 8 8
3 3 5 7 9 11 14 16 19 19 19 19 18 17 17 17 16 15 14 14 14 14 14 14 13 11 10 10 10 9 8 7 6 6 5 5 4 4 4 4 3 3 2 5
6 9 11 12 12 14 16 18 19 19 19 18 17 16 16 16 15 14 14 13 14 14 13 12 12 10 9 9 9 8 8 8 5 5 5 5 4 4 4 3 3 3 4 6
9 11 13 14 14 15 16 17 17 18 18 18 17 17 17 16 15 14 13 13 13 13 12 11 10 9 9 8 7 7 7 7 5 5 5 5 4 4 4 4 4 4 4 6
9 12 13 15 16 16 17 17 17 17 17 17 18 17 16 15 15 14 14 14 13 12 11 10 9 9 9 8 7 6 6 6 5 6 5 5 4 4 4 4 4 4 4 3
13 15 16 16 16 16 16 16 16 16 16 16 16 16 15 14 14 13 13 12 12 11 10 10 9 10 10 8 6 6 6 6 6 5 5 4 2 4 4 4 4 5 5 6
15 17 17 17 16 16 16 16 16 16 15 15 16 15 14 14 13 13 12 10 8 9 10 9 9 9 9 7 3 6 6 5 5 4 4 3 4 4 4 4 5 5 5 5
16 17 17 17 16 16 16 16 15 15 14 14 15 14 14 13 12 11 11 10 10 10 10 8 7 8 7 6 3 6 6 5 5 4 4 4 4 4 4 4 4 5 5 5
15 16 17 16 15 15 14 13 14 14 14 14 14 14 14 12 11 10 9 8 9 7 7 7 8 8 5 2 5 6 5 5 4 4 3 3 3 3 4 4 4 4 5 5
14 15 16 15 15 14 14 13 13 13 13 13 12 12 11 9 8 8 9 8 9 6 6 8 10 7 1 3 5 5 5 4 3 3 3 3 3 3 3 3 4 4 4 5
14 14 14 14 14 14 13 12 11 11 11 11 10 10 9 8 7 7 9 10 8 7 8 10 9 4 4 3 4 4 4 3 3 2 3 2 2 2 3 3 3 4 4 5
13 13 13 13 12 11 11 11 12 11 10 9 10 9 7 6 7 9 10 12 11 8 9 9 7 4 3 3 3 3 3 3 2 2 2 2 2 2 2 2 3 3 4 5
11 10 9 9 9 8 8 8 8 8 8 8 7 7 7 7 9 10 10 11 12 8 7 8 7 6 4 3 3 3 3 4 3 1 1 0 1 1 2 3 4 4 5 5
10 9 8 8 7 7 7 7 7 7 7 7 7 7 7 8 9 10 10 10 9 8 7 6 5 5 4 3 3 3 2 2 1 1 1 2 2 3 3 4 5 6 7 7
Wind_Direction
268 278 269 263 257 249 248 257 267 273 274 277 278 244 205 189 181 177 174 176 178 176 175 177 176 175 176 177 176 177 178 178 173 171 170 168 165 165 166 167 167 159 154 150
263 264 265 265 261 258 257 259 262 268 272 281 289 261 214 198 188 183 179 178 175 172 171 173 173 173 170 170 167 167 169 165 155 153 155 153 152 148 142 136 129 125 123 115
266 270 273 261 257 259 260 260 261 264 271 278 268 253 230 206 195 188 180 175 172 169 166 164 163 162 159 154 149 151 147 140 138 138 135 132 132 129 125 120 115 108 102 95
268 269 257 265 290 280 275 274 272 271 273 276 279 269 242 216 195 181 175 168 162 157 152 149 144 140 135 133 132 129 126 125 126 127 121 117 115 113 112 109 106 102 97 93
256 256 262 265 267 284 280 277 284 284 282 271 212 188 208 183 171 166 160 152 145 141 136 132 132 131 127 123 118 114 113 115 118 117 114 113 111 109 108 107 104 102 97 93
247 258 262 269 34 333 289 268 325 321 300 263 219 231 196 130 125 123 123 124 124 122 120 119 120 121 118 113 110 108 107 105 104 105 108 109 109 109 107 106 105 103 96 89
251 254 260 301 337 291 257 297 3 335 317 282 256 273 116 118 115 116 114 114 115 113 110 112 116 115 110 107 105 106 106 105 103 104 106 107 107 107 111 109 105 103 101 95
245 248 255 49 306 280 303 321 315 311 305 295 98 113 121 120 119 116 113 113 112 107 103 105 109 110 107 105 107 109 107 105 105 106 107 107 107 107 109 115 118 115 111 107
255 270 320 315 296 296 298 294 294 292 285 175 137 130 125 120 116 113 111 109 108 105 100 97 99 104 105 107 111 110 107 105 104 103 102 107 112 117 121 123 120 118 118 110
267 269 290 302 306 306 302 296 295 279 200 148 137 129 121 116 113 110 109 108 107 103 100 97 96 96 99 105 107 107 106 106 106 106 103 95 93 95 93 87 89 91 78 68
268 284 296 307 321 317 314 314 337 109 125 129 126 121 117 113 110 108 107 105 103 102 101 100 98 97 100 104 106 107 108 109 109 104 99 91 75 53 61 54 44 37 41 34
290 318 309 312 323 329 8 89 113 116 112 112 115 117 114 110 109 110 108 107 107 107 106 105 101 98 97 100 104 109 111 110 110 112 111 112 106 90 60 69 70 64 51 45
306 321 330 325 354 56 102 107 111 114 115 112 111 114 113 112 111 111 111 113 112 111 109 107 103 98 96 98 99 98 100 101 105 107 111 111 114 117 115 99 88 83 77 66
5 14 46 49 79 95 104 108 110 111 111 112 114 115 116 115 115 114 114 114 114 112 110 106 100 96 96 98 98 100 101 95 93 93 90 88 87 89 93 108 119 107 109 108
63 80 102 100 99 104 109 115 114 114 115 116 118 119 121 120 118 117 117 118 116 112 109 106 101 96 97 100 97 92 89 88 84 87 87 84 82 79 71 63 61 59 77 128
107 105 106 104 105 112 117 120 119 120 121 121 121 120 118 115 115 116 118 119 115 109 106 103 99 97 98 100 101 95 84 68 68 86 85 82 73 64 59 51 48 40 28 21
128 122 118 114 113 115 117 118 119 121 123 123 122 121 119 118 116 114 112 109 106 105 104 103 101 100 98 97 98 98 101 102 102 84 75 69 65 59 53 42 35 23 37 57
123 122 122 123 123 121 119 119 121 124 126 126 126 126 127 126 123 120 118 115 109 102 97 99 103 104 99 95 92 95 98 95 86 80 79 65 57 59 53 45 34 18 13 66
121 120 119 118 119 120 122 123 122 123 126 129 130 129 127 125 124 124 124 121 116 109 101 102 103 106 102 97 98 100 96 96 92 87 85 97 70 57 46 35 24 15 9 3
118 119 119 118 118 119 120 121 122 123 127 129 127 125 123 123 125 125 121 112 105 110 118 116 115 107 105 96 82 96 93 92 91 89 82 76 64 53 41 31 19 11 6 2
120 120 120 119 118 118 120 122 122 124 126 128 128 127 126 126 129 128 125 115 108 112 116 117 115 112 105 107 109 97 96 91 88 82 74 65 55 47 38 26 16 8 6 0
118 119 118 117 116 115 117 119 122 123 123 124 125 126 128 129 128 120 110 115 124 131 133 123 111 97 99 131 107 98 94 89 83 79 71 59 50 42 35 24 17 13 8 1
118 118 118 119 118 118 116 117 119 121 123 124 127 129 128 127 131 131 126 126 134 144 128 111 110 118 215 142 101 98 93 88 81 79 72 60 52 42 33 24 19 11 6 358
117 117 118 119 117 116 115 116 117 118 121 123 124 127 129 129 126 117 117 121 122 132 119 115 128 152 235 123 105 99 95 96 95 85 73 63 53 44 35 21 11 5 0 351
116 117 120 122 120 119 121 123 122 125 125 123 126 130 130 128 129 126 130 135 140 144 132 136 155 199 199 120 111 104 105 89 71 65 86 59 39 38 17 359 352 342 342 338
116 118 117 118 119 128 134 133 131 130 129 130 128 128 125 123 126 132 137 144 147 149 145 149 162 190 174 145 134 134 129 134 150 175 83 5 333 324 324 329 320 319 320 319
118 118 119 121 125 129 131 132 134 135 136 137 136 137 138 138 141 144 146 150 156 160 159 161 163 168 162 153 148 153 156 154 164 194 227 262 283 289 295 294 298 302 302 305
Height
1455 1452 1454 1456 1456 1456 1458 1456 1457 1450 1447 1443 1444 1450 1455 1459 1463 1466 1470 1473 1477 1480 1484 1487 1490 1493 1496 1500 1502 1505 1508 1511 1514 1517 1520 1523 1525 1528 1530 1533 1535 1536 1537 1538
1461 1455 1455 1457 1454 1453 1453 1452 1451 1450 1447 1442 1447 1451 1454 1458 1461 1464 1467 1471 1474 1478 1481 1485 1488 1491 1494 1497 1500 1502 1505 1509 1512 1515 1518 1520 1522 1525 1528 1530 1532 1533 1534 1536
1463 1455 1458 1460 1451 1449 1448 1446 1447 1448 1444 1443 1447 1450 1454 1456 1458 1461 1465 1469 1472 1476 1479 1483 1486 1489 1492 1495 1497 1500 1503 1506 1509 1512 1515 1518 1521 1523 1526 1528 1530 1531 1532 1533
1463 1465 1473 1450 1444 1447 1448 1446 1443 1442 1443 1446 1448 1453 1455 1457 1458 1461 1464 1467 1471 1474 1478 1482 1485 1488 1491 1494 1497 1499 1502 1505 1508 1511 1514 1517 1520 1522 1525 1526 1528 1529 1530 1531
1463 1463 1457 1448 1447 1450 1451 1448 1444 1444 1444 1447 1450 1453 1455 1457 1458 1461 1464 1466 1470 1473 1477 1480 1484 1487 1490 1494 1497 1500 1502 1505 1508 1511 1514 1517 1519 1522 1525 1526 1528 1529 1530 1531
1464 1469 1465 1450 1449 1453 1453 1450 1447 1447 1447 1448 1449 1449 1451 1456 1458 1461 1463 1466 1470 1473 1476 1480 1484 1487 1490 1494 1497 1501 1504 1507 1509 1512 1515 1518 1520 1523 1525 1527 1528 1530 1530 1531
1463 1464 1453 1447 1451 1453 1457 1450 1451 1449 1449 1449 1449 1449 1454 1456 1458 1461 1464 1467 1471 1474 1477 1481 1485 1488 1491 1495 1499 1502 1505 1508 1511 1514 1518 1520 1522 1524 1526 1528 1529 1530 1531 1532
1461 1463 1457 1451 1452 1453 1451 1450 1450 1449 1449 1449 1451 1452 1455 1457 1460 1463 1466 1469 1473 1476 1479 1484 1488 1490 1492 1496 1501 1505 1508 1511 1514 1518 1521 1523 1524 1526 1528 1529 1531 1532 1532 1533
1455 1454 1451 1453 1453 1453 1452 1450 1448 1448 1448 1449 1451 1454 1456 1459 1462 1466 1469 1472 1476 1478 1482 1487 1491 1494 1496 1500 1504 1508 1511 1514 1517 1520 1523 1525 1527 1529 1530 1532 1533 1534 1534 1535
1454 1449 1450 1451 1451 1450 1449 1447 1446 1445 1446 1447 1450 1454 1458 1461 1465 1469 1473 1476 1479 1482 1486 1492 1496 1499 1502 1505 1508 1511 1515 1517 1520 1523 1526 1527 1530 1532 1533 1534 1534 1534 1535 1535
1452 1450 1450 1449 1450 1448 1446 1445 1444 1444 1446 1448 1451 1456 1460 1464 1468 1472 1477 1481 1484 1487 1492 1496 1500 1503 1507 1510 1513 1515 1518 1521 1523 1526 1528 1529 1530 1531 1532 1532 1532 1533 1533 1533
1451 1451 1451 1451 1449 1447 1445 1444 1444 1445 1448 1451 1454 1458 1463 1468 1472 1477 1481 1485 1490 1494 1497 1502 1505 1508 1512 1515 1517 1519 1521 1524 1526 1528 1529 1531 1531 1531 1531 1531 1531 1531 1530 1530
1453 1452 1451 1450 1448 1446 1444 1444 1445 1448 1451 1455 1460 1464 1468 1472 1478 1482 1487 1491 1495 1499 1502 1506 1509 1512 1515 1518 1520 1522 1523 1525 1528 1529 1530 1532 1532 1532 1532 1531 1530 1530 1529 1528
1452 1451 1450 1449 1448 1447 1446 1448 1450 1453 1457 1461 1465 1470 1474 1479 1484 1489 1493 1497 1501 1504 1507 1510 1513 1515 1518 1521 1522 1524 1525 1527 1528 1530 1531 1532 1532 1533 1533 1533 1532 1530 1528 1527
1452 1451 1451 1451 1451 1451 1451 1452 1455 1459 1464 1468 1472 1477 1481 1485 1490 1494 1498 1502 1506 1509 1512 1514 1516 1519 1521 1523 1524 1525 1527 1528 1529 1530 1531 1532 1532 1532 1532 1532 1532 1531 1530 1528
1453 1453 1453 1454 1454 1455 1456 1458 1461 1465 1470 1474 1479 1483 1488 1491 1496 1500 1504 1508 1510 1513 1515 1517 1519 1521 1523 1524 1525 1526 1527 1528 1529 1531 1531 1532 1532 1532 1532 1532 1531 1531 1530 1528
1453 1455 1456 1457 1459 1461 1463 1465 1468 1472 1476 1481 1485 1489 1493 1497 1501 1505 1508 1511 1514 1516 1518 1520 1522 1523 1525 1526 1527 1529 1529 1529 1530 1531 1532 1532 1532 1532 1532 1531 1531 1530 1529 1526
1456 1457 1459 1461 1463 1466 1469 1472 1475 1478 1482 1486 1490 1495 1499 1502 1505 1509 1512 1515 1517 1519 1521 1522 1524 1525 1526 1527 1528 1530 1530 1531 1531 1532 1532 1532 1532 1532 1532 1531 1531 1530 1529 1527
1458 1460 1463 1466 1469 1471 1475 1478 1481 1485 1489 1492 1496 1500 1503 1507 1509 1512 1515 1518 1519 1521 1523 1524 1525 1526 1527 1527 1529 1530 1531 1532 1532 1532 1532 1531 1532 1532 1532 1531 1530 1530 1528 1527
1462 1464 1467 1470 1474 1477 1480 1483 1487 1490 1494 1497 1500 1503 1506 1510 1512 1515 1518 1520 1521 1522 1524 1525 1526 1527 1528 1528 1530 1531 1532 1532 1532 1533 1533 1533 1533 1532 1532 1531 1530 1529 1528 1526
1466 1468 1471 1475 1478 1482 1485 1488 1491 1494 1498 1501 1503 1506 1509 1512 1515 1517 1519 1521 1522 1524 1525 1526 1528 1529 1529 1530 1531 1532 1532 1533 1533 1533 1533 1533 1533 1532 1531 1530 1530 1528 1527 1526
1470 1473 1476 1479 1482 1486 1489 1492 1495 1498 1501 1504 1506 1509 1511 1514 1517 1519 1521 1522 1523 1524 1526 1528 1529 1529 1530 1531 1533 1533 1533 1533 1533 1533 1533 1533 1532 1532 1531 1530 1529 1528 1527 1525
1474 1478 1481 1484 1487 1490 1493 1496 1499 1501 1504 1506 1509 1511 1514 1516 1518 1520 1521 1523 1524 1525 1528 1528 1529 1530 1530 1533 1533 1533 1533 1533 1533 1533 1533 1533 1532 1531 1531 1530 1529 1527 1526 1524
1479 1482 1485 1488 1491 1494 1496 1499 1502 1504 1506 1509 1511 1513 1515 1517 1519 1521 1521 1522 1524 1526 1528 1528 1529 1530 1531 1533 1533 1534 1534 1534 1534 1533 1533 1533 1532 1531 1531 1530 1528 1527 1525 1523
1484 1487 1489 1492 1495 1497 1500 1502 1504 1506 1509 1510 1513 1514 1516 1518 1519 1521 1522 1523 1525 1527 1528 1529 1530 1531 1532 1533 1534 1534 1534 1534 1534 1533 1533 1533 1532 1531 1530 1529 1528 1526 1524 1522
1488 1491 1493 1495 1498 1500 1502 1504 1506 1508 1510 1512 1513 1515 1517 1518 1520 1521 1523 1524 1526 1527 1529 1530 1530 1531 1533 1533 1533 1533 1534 1533 1533 1533 1533 1532 1531 1530 1529 1528 1526 1525 1523 1521
1492 1494 1496 1498 1500 1502 1504 1506 1507 1509 1511 1512 1514 1515 1517 1519 1520 1522 1524 1525 1527 1528 1530 1531 1532 1532 1533 1533 1533 1533 1533 1533 1533 1533 1532 1532 1531 1529 1528 1527 1525 1523 1521 1519